Regional Weather Roundup
Issued by NWS Green Bay, WI

Home | Current Version | Previous Version | Text Only | Print | Product List | Glossary On
Versions: 1 2 3 4 5 6 7 8 9 10 11 12 13 14 15 16 17 18 19 20 21 22 23 24 25 26 27 28 29 30 31 32 33 34 35 36 37 38 39 40 41 42 43 44 45 46 47 48 49 50
000
ASUS43 KGRB 032210
RWRGRB

NORTH-CENTRAL AND NORTHEAST WISCONSIN REGIONAL WEATHER ROUNDUP
NATIONAL WEATHER SERVICE GREEN BAY WI
500 PM CDT SUN MAY 03 2015

WIZ005-009-010>012-018-019-032300-
NORTH CENTRAL WISCONSIN

CITY           SKY/WX    TMP DP  RH WIND       PRES   REMARKS
IRONWOOD       PTSUNNY   72  52  49 N8        29.76R
MANITOWISH WTR PTSUNNY   74  48  39 W7        29.78R
ARBOR VITAE    MOSUNNY   77  47  35 NW6       29.78R
EAGLE RIVER    PTSUNNY   76  43  31 SW12G17   29.78R
LAND O LAKES   PTSUNNY   79  42  26 SW9G16    29.78R
RHINELANDER    MOSUNNY   78  50  37 W12G20    29.79S
PHILLIPS       PTSUNNY   75  51  42 SW8       29.77R
ANTIGO         MOSUNNY   74  51  44 SW12      29.79F
TOMAHAWK       MOSUNNY   78  46  31 CALM      29.79S
MERRILL        MOSUNNY   80  53  39 W10G17    29.78S
$$

WIZ013-073-032300-
NORTHEAST WISCONSIN

CITY           SKY/WX    TMP DP  RH WIND       PRES   REMARKS
IRON MOUNTAIN  PTSUNNY   81  47  30 S16       29.73S
MARINETTE      SUNNY     79  52  38 SW22G30   29.78S
OCONTO         MOSUNNY   80  54  41 SW15      29.79S
$$

WIZ017-030-035>037-045-032300-
CENTRAL WISCONSIN

CITY           SKY/WX    TMP DP  RH WIND       PRES   REMARKS
MEDFORD        MOSUNNY   77  52  40 SW10      29.78F
WAUSAU         SUNNY     79  51  37 SW10      29.77F
MOSINEE        NOT AVBL
MARSHFIELD     PTSUNNY   81  52  36 W8        29.78F
WISC RAPIDS    MOSUNNY   81  50  33 SW14G20   29.80F
STEVENS POINT  MOSUNNY   78  51  39 SW12G21   29.80F
WAUPACA        PTSUNNY   82  48  30 SW18G24   29.80S
SHAWANO          N/A     81  50  34 SW8G17    29.79S
CLINTONVILLE   MOSUNNY   81  48  32 SW12      29.79F
$$

WIZ038-039-048-051-032300-
FOX VALLEY

CITY           SKY/WX    TMP DP  RH WIND       PRES   REMARKS
NWS GREEN BAY  MOSUNNY   79  55  43 S16G31    29.81F
APPLETON       PTSUNNY   77  52  41 SW21G28   29.83S
OSHKOSH        PTSUNNY   77  55  46 S24G32    29.83S
FOND DU LAC    PTSUNNY   76  52  43 SW23G31   29.85S
$$

WIZ022-050-052-032300-
EAST CENTRAL WISCONSIN

CITY           SKY/WX    TMP DP  RH WIND       PRES   REMARKS
STURGEON BAY   MOSUNNY   70  48  46 S16       29.84S
MANITOWOC      CLOUDY    65  48  54 S12       29.85F
SHEBOYGAN      PTSUNNY   76  54  46 SW17      29.86S
$$

LMZ563-521-522-541>543-032300-
LAKESHORE

STATION/POSITION TIME  TEMP    WIND        PRES    VSBY  WAVE
                       AIR SEA DIR/SP/G                  HT/PER
                 (UTC) (F)     (DEG/KT/KT) (MB)    (MI)  (FT/S)
SHEBOYGAN LKSHOR 2200   53     180/ 15/ 18 1011.5R
KEWAUNEE LKSHORE 2200   49     180/ 14/ 17 1010.0R
NORTHPORT PIER   2200   60     160/  9/ 21 1009.5F
STURGEON BAY CG  2100   46     180/ 15     1012.4      6   2
CHAMBERS ISLAND  2200   71     150/  7/ 13 1008.8F
MENOMINEE LKSHOR 2200   66     160/ 14/ 18 1009.3F
$$


USA.gov is the U.S. government's official web portal to all federal, state and local government web resources and services.